Regional Weather Roundup
Issued by NWS

Home | Current Version | Previous Version | Graphics & Text | Print | Product List | Glossary On
Versions: 1 2 3 4 5 6 7 8 9 10 11 12 13 14 15 16 17 18 19 20 21 22 23 24 25 26 27 28 29 30 31 32 33 34 35 36 37 38 39 40 41 42 43 44 45 46 47 48 49 50
000
ASUS45 KCYS 060210
RWRWY

WYOMING REGIONAL WEATHER ROUNDUP
NATIONAL WEATHER SERVICE CHEYENNE WY
800 PM MDT SUN JUL 05 2015

NOTE:  "FAIR" INDICATES FEW OR NO CLOUDS BELOW 12,000 FEET
WITH NO SIGNIFICANT WEATHER AND/OR OBSTRUCTIONS TO VISIBILITY.

WYZ001-060300-
YELLOWSTONE NATIONAL PARK

CITY           SKY/WX    TMP DP  RH WIND       PRES   REMARKS
LK YELLOWSTONE   N/A     59  45  59 VRB3      30.25R
W YELLOWSTONE  NOT AVBL

$$
WYZ002>013-054>058-071-098>099-060300-
NORTHERN WYOMING

CITY           SKY/WX    TMP DP  RH WIND       PRES   REMARKS
JACKSON        FAIR      64  54  68 CALM      30.15S
CODY           CLOUDY    54  52  94 N8        30.17S
GREYBULL       CLOUDY    62  56  80 NW9       30.10R
WORLAND        CLOUDY    60  58  92 N6        30.10R FOG
SHERIDAN       CLOUDY    57  53  86 NW5       30.16R FOG
BUFFALO        CLOUDY    54  53  97 N12       30.18R FOG
GILLETTE       LGT RAIN  56  55  97 N12       30.13R FOG
HULETT         LGT RAIN  57  55  94 NE8G17    30.13R
NEWCASTLE      MOCLDY    63  54  72 NW15      30.04R

$$
WYZ014>020-022>026-101>103-060300-
CENTRAL WYOMING

CITY           SKY/WX    TMP DP  RH WIND       PRES   REMARKS
BIG PINEY      FAIR      65  50  58 W5        30.20R
PINEDALE       FAIR      66  45  45 NW5       30.21R
DUBOIS         MOCLDY    61  48  63 CALM      30.21R
LANDER         CLOUDY    61  53  75 SW6       30.13F
RIVERTON       CLOUDY    62  58  86 S7        30.13S
CASPER         LGT RAIN  58  55  90 NE14      30.15R FOG
DOUGLAS        LGT RAIN  61  58  90 N9        30.13R FOG

$$
WYZ021-027>030-104>119-060300-
SOUTHERN WYOMING

CITY           SKY/WX    TMP DP  RH WIND       PRES   REMARKS
EVANSTON       MOCLDY    67  56  67 N9        30.20R
KEMMERER       FAIR      66  48  52 NW7       30.21S
FORT BRIDGER   CLEAR     68  59  73 CALM      30.22S
ROCK SPRINGS   FAIR      64  57  78 S5        30.18S
DIXON          FAIR      60  57  88 SE7       30.20F
RAWLINS        MOCLDY    60  57  89 CALM      30.19R
SARATOGA       LGT RAIN  57  55  94 CALM      30.21S
LARAMIE        LGT RAIN  58  55  90 N15       30.20R
CHEYENNE       CLOUDY    61  59  93 N16G28    30.10R
TORRINGTON     LGT RAIN  66  63  90 NW17G25   29.98F
PINE BLUFFS    FAIR      64  59  82 NW18G28   30.05R

$$


USA.gov is the U.S. government's official web portal to all federal, state and local government web resources and services.